When you browse on this site, cookies collect data to enhance your experience and personalize the content and advertising you see.
Visit our Privacy Policy to learn more. By continuing to use the site, you agree to this use of cookies and data.
  • In Spain
  • List of Countries
  • For 7 days
  • Water Temperature
  • Satellite Maps
  • Weather Map
  • Weather Widgets
  • user-avatar
    Login

    Hourly Weather Kruhlyi

    Today, 22 March, Friday

    Time Temperature Precipitation Wind Pressure Humidity
    00:00 +3°C° 0 mm 0 mps 728 mmHg 76%
    01:00 +3°C° 0 mm 0 mps 728 mmHg 77%
    02:00 +2°C° 0 mm 0 mps 728 mmHg 78%
    03:00 +2°C° 0 mm 0 mps 728 mmHg 79%
    04:00 +2°C° 0 mm 0 mps 727 mmHg 80%
    05:00 +2°C° 0 mm 0 mps 727 mmHg 80%
    06:00 +3°C° 0 mm 0 mps 727 mmHg 78%
    07:00 +4°C° 0 mm 0 mps 727 mmHg 75%
    08:00 +5°C° 0 mm 0 mps 728 mmHg 72%
    09:00 +7°C° 0 mm 0 mps 728 mmHg 67%
    10:00 +10°C° 0 mm 1 mps 727 mmHg 61%
    11:00 +12°C° 0 mm 1 mps 727 mmHg 56%
    12:00 +12°C° 0 mm 1 mps 727 mmHg 58%
    13:00 +13°C° 0 mm 1 mps 727 mmHg 60%
    14:00 +13°C° 0 mm 1 mps 727 mmHg 62%
    15:00 +13°C° 0 mm 1 mps 727 mmHg 65%
    16:00 +12°C° 0 mm 1 mps 727 mmHg 67%
    17:00 +12°C° 0 mm 1 mps 726 mmHg 70%
    18:00 +11°C° 0 mm 1 mps 726 mmHg 76%
    19:00 +10°C° 0 mm 1 mps 726 mmHg 82%
    20:00 +8°C° 0 mm 1 mps 726 mmHg 88%
    21:00 +8°C° 0 mm 1 mps 727 mmHg 89%
    22:00 +7°C° 0 mm 1 mps 727 mmHg 91%
    23:00 +6°C° 0 mm 1 mps 727 mmHg 92%

    Tomorrow, 23 March, Saturday

    Time Temperature Precipitation Wind Pressure Humidity
    00:00 +6°C° 0 mm 1 mps 726 mmHg 92%
    01:00 +5°C° 0 mm 1 mps 726 mmHg 92%
    02:00 +5°C° 0 mm 1 mps 726 mmHg 91%
    03:00 +4°C° 0 mm 1 mps 726 mmHg 90%
    04:00 +4°C° 0 mm 1 mps 726 mmHg 90%
    05:00 +3°C° 0 mm 1 mps 725 mmHg 89%
    06:00 +4°C° 0 mm 1 mps 726 mmHg 85%
    07:00 +5°C° 0 mm 1 mps 726 mmHg 80%
    08:00 +6°C° 0 mm 1 mps 726 mmHg 76%
    09:00 +8°C° 0 mm 1 mps 726 mmHg 64%
    10:00 +10°C° 0 mm 1 mps 726 mmHg 52%
    11:00 +12°C° 0 mm 1 mps 725 mmHg 39%
    12:00 +13°C° 0 mm 2 mps 725 mmHg 36%
    13:00 +13°C° 0 mm 2 mps 725 mmHg 33%
    14:00 +14°C° 0 mm 2 mps 725 mmHg 29%
    15:00 +14°C° 0 mm 1 mps 725 mmHg 31%
    16:00 +13°C° 0 mm 1 mps 724 mmHg 33%
    17:00 +13°C° 0 mm 1 mps 724 mmHg 34%
    18:00 +11°C° 0 mm 1 mps 724 mmHg 40%
    19:00 +9°C° 0 mm 1 mps 724 mmHg 46%
    20:00 +7°C° 0 mm 1 mps 724 mmHg 51%
    21:00 +6°C° 0 mm 1 mps 724 mmHg 52%
    22:00 +6°C° 0 mm 1 mps 724 mmHg 53%
    23:00 +5°C° 0 mm 1 mps 724 mmHg 53%

    Day after tomorrow, 24 March, Sunday

    Time Temperature Precipitation Wind Pressure Humidity
    00:00 +5°C° 0 mm 1 mps 724 mmHg 52%
    01:00 +5°C° 0 mm 1 mps 723 mmHg 50%
    02:00 +5°C° 0 mm 1 mps 723 mmHg 49%
    03:00 +4°C° 0 mm 1 mps 723 mmHg 47%
    04:00 +4°C° 0 mm 1 mps 723 mmHg 45%
    05:00 +3°C° 0 mm 0 mps 722 mmHg 44%
    06:00 +4°C° 0 mm 0 mps 722 mmHg 42%
    07:00 +6°C° 0 mm 0 mps 722 mmHg 40%
    08:00 +7°C° 0 mm 0 mps 722 mmHg 39%
    09:00 +10°C° 0 mm 1 mps 722 mmHg 35%
    10:00 +12°C° 0 mm 1 mps 722 mmHg 32%
    11:00 +14°C° 0 mm 1 mps 722 mmHg 28%
    12:00 +15°C° 0 mm 1 mps 722 mmHg 32%
    13:00 +15°C° 0 mm 1 mps 722 mmHg 36%
    14:00 +16°C° 0 mm 2 mps 721 mmHg 40%
    15:00 +15°C° 0 mm 2 mps 721 mmHg 45%
    16:00 +15°C° 0 mm 2 mps 720 mmHg 51%
    17:00 +14°C° 0 mm 2 mps 720 mmHg 56%
    18:00 +12°C° 0 mm 1 mps 720 mmHg 64%
    19:00 +11°C° 0 mm 1 mps 720 mmHg 72%
    20:00 +8°C° 0 mm 0 mps 720 mmHg 81%
    21:00 +8°C° 0.5 mm 0 mps 720 mmHg 83%
    22:00 +8°C° 0.5 mm 0 mps 720 mmHg 84%
    23:00 +9°C° 0.5 mm 1 mps 720 mmHg 86%

    25 March, Monday

    Time Temperature Precipitation Wind Pressure Humidity
    00:00 +8°C° 1.3 mm 1 mps 720 mmHg 88%
    01:00 +8°C° 1.3 mm 1 mps 720 mmHg 90%
    02:00 +8°C° 1.3 mm 1 mps 720 mmHg 92%
    03:00 +7°C° 0 mm 1 mps 720 mmHg 91%
    04:00 +6°C° 0 mm 1 mps 719 mmHg 91%
    05:00 +6°C° 0 mm 1 mps 719 mmHg 91%
    06:00 +6°C° 0 mm 1 mps 719 mmHg 87%
    07:00 +5°C° 0 mm 2 mps 719 mmHg 83%
    08:00 +5°C° 0 mm 2 mps 720 mmHg 80%
    09:00 +7°C° 0 mm 1 mps 720 mmHg 71%
    10:00 +8°C° 0 mm 1 mps 720 mmHg 63%
    11:00 +9°C° 0 mm 1 mps 720 mmHg 55%
    12:00 +8°C° 0 mm 2 mps 719 mmHg 53%
    13:00 +9°C° 0 mm 2 mps 719 mmHg 51%
    14:00 +9°C° 0 mm 3 mps 718 mmHg 49%
    15:00 +8°C° 0 mm 3 mps 718 mmHg 51%
    16:00 +7°C° 0 mm 3 mps 718 mmHg 54%
    17:00 +7°C° 0 mm 3 mps 717 mmHg 56%
    18:00 +4°C° 0.1 mm 3 mps 717 mmHg 61%
    19:00 +4°C° 0.1 mm 2 mps 717 mmHg 65%
    20:00 +4°C° 0.1 mm 1 mps 717 mmHg 70%
    21:00 +4°C° 0 mm 1 mps 717 mmHg 71%
    22:00 +3°C° 0 mm 1 mps 717 mmHg 72%
    23:00 +3°C° 0 mm 1 mps 717 mmHg 73%

    26 March, Tuesday

    Time Temperature Precipitation Wind Pressure Humidity
    00:00 +3°C° 0.1 mm 1 mps 717 mmHg 72%
    01:00 +3°C° 0.1 mm 1 mps 717 mmHg 71%
    02:00 +3°C° 0.1 mm 1 mps 717 mmHg 70%
    03:00 +3°C° 1 mm 1 mps 717 mmHg 77%
    04:00 +3°C° 1 mm 1 mps 717 mmHg 84%
    05:00 +3°C° 1 mm 1 mps 717 mmHg 91%
    06:00 +3°C° 0.7 mm 1 mps 717 mmHg 89%
    07:00 +3°C° 0.7 mm 1 mps 718 mmHg 87%
    08:00 +2°C° 0.7 mm 2 mps 718 mmHg 86%
    09:00 +2°C° 0.2 mm 2 mps 719 mmHg 80%
    10:00 +3°C° 0.2 mm 2 mps 719 mmHg 73%
    11:00 +4°C° 0.2 mm 2 mps 720 mmHg 67%
    12:00 +3°C° 0.3 mm 3 mps 720 mmHg 67%
    13:00 +3°C° 0.3 mm 4 mps 721 mmHg 68%
    14:00 +3°C° 0.3 mm 4 mps 721 mmHg 68%
    15:00 +3°C° 0.1 mm 4 mps 721 mmHg 68%
    16:00 +3°C° 0.1 mm 4 mps 722 mmHg 68%
    17:00 +3°C° 0.1 mm 4 mps 722 mmHg 69%
    18:00 +2°C° 0 mm 3 mps 723 mmHg 74%
    19:00 +1°C° 0 mm 3 mps 723 mmHg 79%
    20:00 +1°C° 0 mm 2 mps 724 mmHg 85%
    21:00 +1°C° 0 mm 2 mps 725 mmHg 85%
    22:00 +1°C° 0 mm 2 mps 725 mmHg 85%
    23:00 +1°C° 0 mm 2 mps 726 mmHg 85%

    27 March, Wednesday

    Time Temperature Precipitation Wind Pressure Humidity
    00:00 +1°C° 0 mm 2 mps 726 mmHg 86%
    01:00 +1°C° 0 mm 2 mps 726 mmHg 87%
    02:00 -1°C° 0 mm 2 mps 727 mmHg 88%
    03:00 -1°C° 0 mm 2 mps 727 mmHg 89%
    04:00 0°C° 0 mm 1 mps 727 mmHg 90%
    05:00 0°C° 0 mm 1 mps 727 mmHg 91%
    06:00 +1°C° 0 mm 1 mps 727 mmHg 87%
    07:00 +2°C° 0 mm 1 mps 728 mmHg 83%
    08:00 +3°C° 0 mm 1 mps 728 mmHg 78%
    09:00 +5°C° 0 mm 1 mps 728 mmHg 70%
    10:00 +7°C° 0 mm 1 mps 728 mmHg 62%
    11:00 +9°C° 0 mm 1 mps 728 mmHg 54%
    12:00 +9°C° 0 mm 1 mps 728 mmHg 52%
    13:00 +9°C° 0 mm 1 mps 727 mmHg 51%
    14:00 +8°C° 0 mm 2 mps 727 mmHg 49%
    15:00 +8°C° 0 mm 2 mps 727 mmHg 51%
    16:00 +7°C° 0 mm 2 mps 726 mmHg 53%
    17:00 +7°C° 0 mm 2 mps 726 mmHg 55%
    18:00 +6°C° 0 mm 1 mps 726 mmHg 61%
    19:00 +4°C° 0 mm 1 mps 726 mmHg 68%
    20:00 +1°C° 0 mm 0 mps 726 mmHg 74%
    21:00 +1°C° 0 mm 0 mps 726 mmHg 75%
    22:00 +1°C° 0 mm 0 mps 727 mmHg 75%
    23:00 0°C° 0 mm 0 mps 727 mmHg 76%
    Show more